Seahope II — 9HA2233 — position and weather

sailwx.info

Track history (hours):
 
Tides and Currents Weather Stations Pressure Air Temp Water Temp Dewpoint Dewpoint Depression Visibility Wind Speed Wind Dir Waves Ship Positions

Seahope II

Last reported at 2014-Nov-22 12:33 UTC. Time now 2014-Nov-23 11:09 UTC.
Position N 36°53' E 012°30'.

Length 190 m; draft 10.3 m.

Type: Cargo ship. MMSI: 248185000.

Date/timePositionNaut miles runAvg speedWind from/ knotsBaromVisibWave heightAir tempDewpointWater temp
2014-Nov-22 12:33N 36°53' E 012°30'17211.9
2014-Nov-21 22:10N 37°23' E 008°58'1113.2
2014-Nov-21 21:18N 37°20' E 008°44'2513.9
2014-Nov-21 19:30N 37°18' E 008°12'1514.7
2014-Nov-21 18:28N 37°16' E 007°54'1111.7
2014-Nov-21 17:31N 37°15' E 007°40'1512.9
2014-Nov-21 16:21N 37°15' E 007°21'34713.9
2014-Nov-20 15:17N 36°40' E 000°08'1013.1
2014-Nov-20 14:29N 36°39' W 000°05'257 6.0
2014-Nov-18 19:32N 35°59' W 005°20'  
Track history (hours):
 
Tides and Currents Weather Stations Pressure Air Temp Water Temp Dewpoint Dewpoint Depression Visibility Wind Speed Wind Dir Waves Ship Positions

Seahope II

Last reported at 2014-Nov-22 12:33 UTC. Time now 2014-Nov-23 11:09 UTC.
Position N 36°53' E 012°30'.

Length 190 m; draft 10.3 m.

Type: Cargo ship. MMSI: 248185000.

Date/timePositionNaut miles runAvg speedWind from/ knotsBaromVisibWave heightAir tempDewpointWater temp
2014-Nov-22 12:33N 36°53' E 012°30'17211.9
2014-Nov-21 22:10N 37°23' E 008°58'1113.2
2014-Nov-21 21:18N 37°20' E 008°44'2513.9
2014-Nov-21 19:30N 37°18' E 008°12'1514.7
2014-Nov-21 18:28N 37°16' E 007°54'1111.7
2014-Nov-21 17:31N 37°15' E 007°40'1512.9
2014-Nov-21 16:21N 37°15' E 007°21'34713.9
2014-Nov-20 15:17N 36°40' E 000°08'1013.1
2014-Nov-20 14:29N 36°39' W 000°05'257 6.0
2014-Nov-18 19:32N 35°59' W 005°20'  

Dump ship's entire track history